Temp
20 20 20 20 21 21 21 22 22 22 22 23 23 23 23 23 22 22 23 23 23 23 22 22 21 21 21 22 21 21 26 26 26 24 26 22 23 20 18 20 18 19 18 16 15
19 19 19 20 21 21 21 21 22 22 22 23 23 23 23 23 23 22 24 23 23 23 22 23 24 23 25 23 23 25 25 26 25 25 25 23 23 23 21 20 20 18 16 13 13
18 19 19 20 20 21 21 21 21 22 22 23 23 23 23 23 24 25 23 23 23 23 22 22 22 24 24 23 23 23 26 24 24 23 22 23 21 22 22 22 24 23 22 14 13
18 19 19 19 20 20 21 21 21 21 22 22 23 23 22 23 26 23 23 23 23 23 22 21 23 24 24 24 22 24 23 23 23 21 21 22 21 21 21 25 22 23 21 15 15
17 18 18 19 19 20 21 21 21 21 22 22 22 22 22 23 24 23 23 22 22 22 21 23 24 24 25 24 22 23 23 21 22 20 21 19 21 22 21 23 21 17 16 16 16
13 16 18 18 19 19 20 21 21 22 22 22 22 22 22 23 22 22 22 22 22 22 20 22 24 22 23 23 23 23 21 22 21 21 20 20 22 18 24 21 20 17 17 17 17
11 13 17 18 18 19 19 21 21 22 22 22 22 21 21 24 21 21 21 21 21 21 21 19 20 22 22 22 19 20 22 22 21 21 21 19 21 20 24 17 19 17 18 17 16
9 10 13 18 18 19 19 20 21 22 22 21 21 20 23 20 20 20 20 20 20 20 20 19 19 20 21 19 20 21 21 24 22 19 19 20 25 26 24 19 20 20 19 16 16
9 9 11 14 17 18 19 20 22 21 21 20 20 20 23 19 19 19 20 20 19 19 18 19 19 20 20 23 24 21 26 23 23 20 19 20 24 24 19 18 20 22 20 18 16
9 9 9 14 16 18 19 21 20 19 19 19 19 21 20 21 18 18 19 19 19 19 20 21 21 22 21 24 26 27 23 24 23 22 18 20 21 24 23 18 21 23 22 19 17
9 9 8 11 15 17 19 21 22 21 18 22 22 21 19 17 18 17 18 18 20 21 22 19 23 24 26 25 25 23 22 24 25 19 20 22 21 22 23 23 21 21 22 21 18
9 9 8 10 13 16 16 17 15 14 19 17 16 16 17 17 19 17 18 21 20 22 19 20 22 24 21 20 20 21 22 23 23 17 17 20 19 20 21 21 22 22 23 22 19
10 9 9 11 12 14 14 14 13 13 17 18 16 17 17 17 19 19 18 18 20 19 20 23 24 17 19 19 19 20 21 23 21 18 16 16 19 19 21 19 20 20 21 21 19
10 10 9 11 13 11 12 12 13 13 19 19 18 17 15 16 18 15 16 19 18 20 18 20 19 19 19 20 20 21 20 19 18 18 22 17 22 24 24 22 20 23 24 20 18
11 10 10 8 9 11 12 12 12 12 19 19 17 15 15 17 16 16 15 18 19 18 18 22 16 17 18 20 19 21 16 17 17 17 15 20 17 23 16 19 22 23 24 20 18
12 11 11 10 9 11 12 13 13 19 18 19 16 16 16 15 15 15 16 16 16 17 16 18 15 16 19 14 15 14 16 15 14 16 17 21 20 23 21 21 23 23 23 19 15
12 11 11 11 11 11 12 13 18 18 17 19 18 15 16 16 16 15 16 16 18 18 19 18 17 15 14 17 14 16 18 21 21 19 21 18 17 21 21 21 21 24 25 18 16
12 11 10 10 11 10 11 17 16 19 19 16 16 15 18 17 17 15 15 17 16 16 17 20 22 15 15 19 21 16 19 20 20 21 22 14 17 23 21 22 22 17 18 15 14
12 10 9 10 10 10 14 16 19 20 18 17 15 16 17 16 18 15 16 18 18 17 20 18 20 12 12 13 16 15 17 17 17 10 14 22 24 21 17 18 17 16 16 17 15
10 9 9 10 10 10 12 17 18 18 15 16 20 19 21 20 16 16 17 17 17 16 21 19 19 14 11 12 12 14 14 16 16 17 19 22 22 23 21 19 18 17 17 19 16
10 10 10 9 9 9 12 15 17 16 16 18 20 20 19 21 17 17 20 18 17 16 16 17 18 16 12 13 18 12 15 14 14 14 19 19 22 23 22 20 19 19 19 19 17
10 10 8 8 9 10 11 14 13 14 14 16 15 18 20 20 18 18 19 19 18 14 15 16 16 18 19 12 11 14 17 17 18 16 16 18 20 19 20 20 18 18 16 17 15
10 10 7 8 10 9 10 11 12 13 15 16 16 16 18 18 16 17 19 16 14 15 15 13 13 15 17 11 10 13 12 15 17 18 17 17 19 21 22 21 20 18 18 15 16
10 10 7 8 9 11 11 11 11 12 13 12 13 14 14 14 16 17 17 14 12 15 13 15 12 16 18 20 16 14 13 13 16 16 17 17 19 21 21 21 21 20 16 15 15
10 10 8 7 9 10 12 12 12 12 12 12 12 13 14 14 16 15 16 17 11 11 11 13 12 13 15 15 15 15 16 16 13 15 16 18 19 20 21 21 22 21 20 19 18
10 9 7 9 10 9 9 10 11 13 14 12 13 14 14 13 13 14 14 14 14 8 11 10 11 12 11 13 13 13 15 15 15 15 16 15 15 18 18 19 19 18 18 17 17
7 7 8 9 9 9 9 9 11 12 13 14 14 13 13 13 14 15 14 14 11 12 11 10 11 11 11 12 12 11 12 14 15 16 16 15 17 18 18 18 18 18 18 17 16
Height
846 844 843 842 840 839 838 836 834 832 829 827 825 824 823 823 823 823 821 819 818 818 818 817 817 818 819 820 821 821 820 819 818 824 813 819 820 827 830 827 830 828 826 829 832
846 844 843 841 840 838 837 835 833 831 829 826 824 823 822 821 821 819 818 816 816 816 817 817 816 817 816 819 820 818 821 814 812 811 812 815 816 818 823 824 824 824 826 830 832
845 844 842 841 839 837 836 834 832 830 828 826 824 821 821 821 821 813 814 815 815 816 816 816 816 815 816 817 818 820 817 815 814 814 815 815 819 816 816 816 804 807 810 824 828
844 843 842 840 838 836 835 833 831 829 827 825 823 821 820 820 827 810 811 812 813 813 814 815 816 816 816 817 817 819 815 815 814 815 818 817 816 815 812 796 800 801 807 816 820
843 841 840 839 837 835 833 831 829 827 825 823 821 820 820 820 812 809 810 811 811 812 812 812 812 814 814 814 818 816 812 814 812 815 814 817 813 810 803 796 800 806 808 810 812
841 839 838 836 835 834 832 829 827 824 822 821 819 819 819 822 808 808 809 810 811 810 810 810 809 811 814 814 815 811 814 811 811 811 812 813 807 814 787 791 795 802 802 804 805
839 837 835 834 833 831 829 826 824 821 819 817 816 817 817 808 807 807 808 809 810 811 810 810 811 812 813 817 818 817 816 810 808 809 809 813 807 800 779 795 793 796 795 798 799
837 834 833 831 830 828 826 823 819 816 814 813 814 815 810 806 806 807 807 809 810 810 812 813 813 815 816 820 818 818 818 809 803 810 811 811 787 776 777 789 785 785 788 791 792
835 833 830 828 826 824 822 819 815 812 812 812 813 814 808 805 805 805 806 808 809 811 812 813 814 817 819 815 814 817 802 810 804 805 810 809 785 775 784 787 780 775 778 781 784
833 831 828 826 824 821 819 816 812 811 812 812 812 815 806 801 802 802 804 806 808 811 812 812 813 812 815 811 808 797 808 800 802 800 810 805 791 772 773 784 772 764 765 769 773
829 829 827 824 822 820 817 814 814 811 810 803 802 800 799 801 802 803 804 806 807 809 810 814 811 802 793 795 790 800 803 796 782 804 804 791 789 773 767 767 762 756 753 754 759
828 825 824 823 820 819 818 818 819 821 812 803 803 800 798 798 801 801 804 805 805 805 811 815 807 784 795 802 806 805 802 790 787 806 808 791 785 776 770 757 750 743 737 740 750
827 825 822 820 819 819 819 819 819 819 817 801 797 796 796 796 793 793 799 800 801 807 805 799 785 801 801 803 806 801 797 786 797 800 803 803 776 768 754 756 744 734 729 732 738
824 823 821 817 821 820 820 820 819 819 810 799 795 793 795 795 794 795 795 797 801 798 806 798 792 795 800 795 796 798 789 795 801 805 787 798 755 748 741 741 743 723 719 725 732
824 822 820 817 818 819 820 820 820 820 819 792 793 794 795 795 797 797 798 796 794 799 800 783 798 801 798 787 792 787 802 801 804 803 809 784 790 737 757 749 733 716 710 718 723
823 820 821 815 814 816 816 819 821 821 810 789 791 793 796 796 797 798 797 798 801 800 801 790 799 795 786 803 801 807 802 806 813 805 792 762 766 732 738 733 722 712 704 714 722
816 819 817 818 812 810 813 818 822 810 792 783 781 790 789 791 794 795 796 797 793 802 793 789 789 793 794 793 804 801 795 788 781 788 757 763 769 731 726 721 717 704 699 714 721
807 812 813 811 813 812 811 813 813 777 778 780 784 789 780 780 782 789 793 790 790 790 789 781 773 788 783 773 770 792 783 785 783 770 739 774 744 707 710 705 700 711 710 717 721
801 802 804 806 808 812 806 800 760 762 770 778 787 784 778 778 775 784 780 773 767 775 774 779 767 788 791 788 782 792 789 782 783 816 784 717 691 701 710 708 708 708 711 705 711
790 791 787 797 802 808 804 760 748 753 763 765 761 758 755 759 777 776 769 755 759 759 747 758 769 779 794 791 793 785 787 788 786 784 761 689 693 690 696 695 700 705 703 695 703
786 783 780 789 794 795 779 755 745 751 753 757 749 747 749 748 757 759 741 745 750 753 759 759 761 767 788 779 757 789 779 784 784 780 758 739 680 671 680 685 693 693 691 693 698
773 772 778 781 785 774 767 749 751 752 755 751 753 745 741 743 748 748 738 736 737 749 759 756 758 751 741 766 773 763 752 754 755 757 752 746 677 674 673 681 688 690 692 693 695
762 762 770 771 765 771 765 758 754 749 747 745 743 743 739 740 749 739 731 733 741 742 746 755 764 763 743 768 774 759 762 751 742 736 717 743 671 668 664 669 674 681 683 690 688
761 759 765 759 750 748 749 747 748 743 741 745 741 740 746 743 737 729 726 733 737 731 737 737 752 738 729 707 724 743 748 746 738 729 712 706 684 655 662 665 667 669 678 677 672
744 741 747 755 748 745 739 735 735 736 737 736 738 738 735 735 730 730 717 721 742 742 740 745 745 742 727 718 721 728 726 723 724 717 714 677 688 667 653 653 653 654 660 656 658
740 734 739 729 730 739 735 728 726 715 721 724 723 716 722 725 726 715 722 721 722 751 738 742 738 741 735 723 725 728 722 704 703 689 691 694 691 665 662 648 653 641 648 646 645
740 734 727 716 718 726 714 715 708 707 708 701 701 709 713 709 706 698 706 709 721 724 729 736 729 728 719 710 722 730 699 698 674 674 671 672 654 649 646 643 640 623 637 637 631
Wind_Speed
11 12 13 14 15 16 17 17 18 19 19 17 9 5 6 3 2 6 5 5 4 2 3 7 4 5 4 2 1 1 3 4 3 5 3 8 9 4 1 4 5 7 4 2 18
11 12 12 12 14 15 16 16 17 17 17 18 11 8 5 6 5 8 6 6 4 3 4 8 5 8 4 3 1 3 3 3 1 3 3 7 9 7 6 8 8 8 10 5 23
10 12 13 13 14 15 16 17 17 17 17 16 12 7 4 4 3 3 11 5 3 3 3 3 5 3 4 2 3 3 3 0 2 5 4 4 5 6 7 11 13 15 14 17 25
12 13 14 15 15 16 16 17 18 18 17 17 12 7 1 2 5 5 10 6 4 4 5 4 3 4 4 5 4 4 4 3 1 4 4 4 4 5 14 16 1 10 7 21 22
13 13 14 16 17 17 18 19 20 19 18 17 11 4 1 3 7 7 9 6 5 5 4 4 3 3 4 4 4 5 4 5 4 5 5 3 9 8 15 17 11 5 10 18 20
15 15 15 16 17 19 20 20 21 21 20 16 9 4 3 7 4 7 8 7 6 6 4 3 3 3 2 3 5 3 4 5 5 5 4 6 5 3 6 6 14 12 15 17 20
16 17 17 17 19 20 21 21 22 22 21 14 6 6 4 10 5 6 6 6 5 5 3 2 4 2 4 2 1 0 6 6 10 6 4 4 9 12 18 7 10 14 15 16 20
17 18 18 17 18 21 22 23 23 23 17 6 4 5 6 3 6 5 6 5 4 4 5 5 4 5 1 3 1 3 3 5 5 8 2 5 14 13 6 10 15 15 15 16 20
17 18 20 18 17 20 22 23 24 15 6 3 5 4 6 2 4 7 8 5 7 6 6 6 3 2 3 3 4 4 10 9 4 11 5 11 15 4 3 8 15 16 16 16 17
15 17 20 19 16 17 21 21 12 3 2 4 2 3 4 4 4 7 7 12 3 6 4 3 2 4 3 7 12 12 8 8 10 6 8 10 22 23 16 12 22 23 20 18 19
12 15 19 19 14 14 19 6 3 2 1 5 3 3 1 3 6 4 6 8 5 3 7 1 7 16 17 17 13 7 8 17 14 4 5 18 22 25 22 19 24 24 21 20 21
14 14 16 19 11 8 6 1 2 0 7 6 7 7 6 4 3 6 10 9 7 12 7 4 16 19 6 6 9 10 13 22 14 3 8 15 22 22 22 25 24 25 24 21 18
13 13 14 16 9 3 2 3 2 1 4 6 5 5 3 10 7 7 14 4 6 9 14 17 9 3 9 10 10 12 18 17 11 4 8 10 16 10 8 15 20 23 23 19 17
13 13 12 12 2 4 0 2 2 2 5 5 4 2 2 2 4 1 6 3 4 10 9 10 5 11 9 11 14 14 8 12 8 5 12 3 18 13 14 14 12 22 14 14 15
13 11 9 5 4 2 3 1 1 2 9 2 3 1 1 3 3 1 1 0 8 8 7 6 5 7 11 9 12 6 2 4 3 8 6 12 10 9 2 6 17 17 16 12 13
15 11 10 6 6 5 3 3 1 4 10 3 4 4 4 2 1 2 2 2 2 3 4 7 1 4 3 3 1 8 3 1 2 4 10 18 18 5 5 7 8 13 14 9 10
20 18 15 9 3 9 9 4 4 9 3 7 6 6 4 6 6 7 7 9 8 5 10 4 9 3 3 4 3 4 3 5 6 6 15 2 8 15 14 12 14 18 15 5 8
25 23 22 19 11 8 8 4 14 5 15 3 3 5 9 12 7 9 6 8 12 5 2 5 11 12 9 12 4 11 6 6 14 15 25 5 11 11 11 16 20 7 10 4 7
27 28 22 26 17 13 5 9 13 11 8 9 3 5 8 6 6 8 13 8 11 19 13 9 10 2 1 2 3 8 8 2 6 2 9 13 21 7 9 13 8 15 11 15 12
24 18 27 31 26 13 5 23 12 10 8 6 19 15 16 13 10 11 12 7 8 17 19 2 8 4 3 2 1 3 4 4 3 7 19 27 30 19 12 15 12 11 13 15 9
24 3 6 34 30 5 11 15 14 11 9 12 19 15 14 15 13 10 15 5 9 7 10 5 9 5 5 12 16 5 6 5 2 4 10 20 13 4 5 4 8 13 13 9 9
6 5 19 37 8 5 13 11 4 6 8 12 3 12 22 16 14 12 17 14 12 10 12 9 3 12 19 1 3 2 10 15 8 8 11 11 28 3 3 5 4 3 5 7 9
3 4 23 23 8 7 9 11 6 8 11 12 16 13 13 16 11 14 18 6 11 11 11 9 4 5 11 4 1 7 6 10 13 14 32 11 29 13 14 15 11 12 12 8 14
3 3 2 4 4 17 18 19 13 10 20 6 6 10 9 12 15 13 18 7 8 10 3 12 7 14 21 18 3 6 10 16 22 18 21 24 35 39 33 31 26 20 13 15 16
4 5 7 6 11 14 18 10 22 14 12 12 6 17 20 16 22 23 26 17 3 4 5 6 11 14 23 25 21 23 21 21 25 27 25 35 28 34 35 33 27 23 18 25 22
4 3 4 4 17 25 21 18 24 24 17 16 21 23 25 25 24 21 25 22 15 4 8 7 20 24 30 34 32 29 22 31 31 38 33 29 32 35 35 36 33 36 28 27 25
7 7 4 9 11 15 23 31 30 28 20 24 25 20 20 27 31 32 26 16 9 16 14 9 11 14 21 25 19 15 36 34 41 34 32 32 37 35 34 31 30 34 23 22 25
Wind_Direction
19 17 16 15 14 12 11 12 13 12 9 12 1 325 254 289 275 233 235 210 199 213 171 159 139 150 141 105 50 257 240 237 224 195 153 158 194 157 142 200 204 202 246 90 162
8 10 7 4 2 1 360 359 1 2 2 360 357 347 271 253 290 243 234 202 203 208 175 188 168 163 150 132 125 241 257 257 215 209 223 185 209 181 192 200 225 225 215 168 169
355 355 354 354 353 351 350 350 349 351 352 352 346 343 319 262 282 232 190 200 213 212 204 169 134 192 167 172 169 163 258 229 235 234 230 219 216 192 226 229 228 219 208 184 182
342 339 341 342 342 342 342 342 341 341 342 343 339 326 315 173 252 188 183 189 194 177 163 157 171 183 179 191 170 220 229 227 204 191 187 217 152 217 224 243 275 238 207 183 190
333 330 328 332 335 334 335 335 335 334 333 333 326 300 200 231 254 195 192 196 184 177 181 183 194 177 219 188 176 224 204 211 230 207 226 167 232 252 244 244 227 212 189 194 200
333 325 323 322 328 334 332 331 330 327 324 323 309 247 175 244 219 199 205 197 205 186 166 179 184 173 166 208 222 173 239 253 250 227 222 237 234 214 245 241 226 215 213 208 208
330 327 321 321 324 327 328 327 325 321 318 310 278 207 222 260 208 203 202 210 220 206 157 146 130 189 147 194 81 345 284 254 225 218 235 207 259 233 248 189 220 220 225 220 217
327 326 323 318 320 320 322 325 321 317 312 294 219 177 252 237 208 199 176 151 131 119 115 118 114 96 345 127 127 243 259 250 148 174 177 208 277 238 213 206 237 233 227 221 219
321 323 322 321 319 317 319 324 317 312 301 179 163 193 256 207 201 198 184 158 126 101 89 111 79 97 165 223 252 218 269 228 271 202 150 211 277 253 186 230 255 248 233 227 225
317 322 322 317 319 317 320 325 313 298 129 141 111 223 176 207 173 173 173 161 138 131 137 180 152 226 197 206 258 270 249 247 252 183 215 219 255 271 261 244 261 264 255 240 228
309 319 322 320 322 325 332 340 299 215 188 219 203 268 172 146 163 185 167 143 130 190 210 134 223 234 241 227 269 269 260 266 267 195 235 250 256 271 282 274 262 267 259 248 238
300 308 319 324 327 329 339 54 117 124 299 249 257 275 224 174 214 202 168 187 183 214 152 185 238 252 243 231 230 237 259 264 283 200 213 273 269 272 266 266 266 268 265 256 246
298 301 314 328 328 351 8 144 155 134 249 281 215 233 217 175 218 199 180 164 195 199 205 230 245 79 199 218 211 234 238 258 260 313 226 283 271 245 259 254 272 263 258 257 236
298 296 309 328 308 342 236 161 167 169 260 239 214 239 125 198 244 53 189 175 201 237 194 242 261 229 213 234 203 243 234 248 268 285 275 2 289 277 272 264 249 270 256 240 225
288 288 291 320 294 191 168 180 203 220 275 68 170 92 96 224 106 65 15 234 216 183 179 221 182 198 216 236 179 244 111 181 201 250 304 252 269 274 134 251 259 263 266 229 226
259 274 276 270 221 202 173 157 166 230 244 219 151 169 157 196 129 120 139 59 7 186 247 259 156 215 213 84 183 135 119 161 162 251 255 257 232 260 190 212 244 259 265 210 196
244 251 245 248 231 172 162 161 228 229 41 195 194 182 175 187 198 186 173 181 188 182 221 206 221 172 184 151 135 193 180 285 256 239 267 131 255 263 277 237 236 250 265 164 182
237 236 235 225 245 215 150 160 235 194 211 78 137 148 198 166 210 181 173 214 230 208 162 223 257 185 177 222 218 187 215 204 274 282 289 109 251 276 229 245 251 277 260 207 208
235 224 220 222 208 191 196 207 229 209 186 175 106 213 217 217 207 180 209 217 208 191 204 194 249 108 296 101 184 157 197 317 283 100 286 256 258 229 203 238 242 251 258 252 228
221 209 218 208 192 173 209 233 216 196 150 181 222 197 232 212 187 192 193 193 223 202 217 231 276 145 115 146 81 217 118 136 198 271 270 280 290 284 234 239 234 247 240 253 220
227 252 218 197 176 186 208 227 237 219 183 196 232 243 238 233 212 214 238 208 200 198 199 165 204 209 150 201 207 177 201 203 272 226 266 281 271 148 161 152 203 224 236 252 242
211 208 174 170 194 206 222 219 184 228 226 249 247 257 246 238 246 240 245 229 177 151 170 205 192 235 240 95 336 314 233 207 225 224 236 267 273 114 249 210 232 244 265 258 237
231 170 181 178 205 214 239 252 255 233 218 209 227 227 230 241 245 241 250 187 166 168 170 173 210 242 259 222 217 208 198 230 237 257 249 223 260 210 277 275 273 254 259 233 236
215 205 203 235 218 205 216 227 232 210 242 226 227 217 227 243 227 248 248 216 193 207 136 167 174 223 242 245 132 184 212 224 223 236 255 239 256 275 275 271 281 279 258 241 237
220 201 180 184 229 230 221 215 230 234 215 212 247 227 230 245 247 245 251 248 186 196 118 153 236 237 247 263 265 271 270 251 236 242 247 259 265 266 275 280 278 281 285 275 270
275 179 191 214 212 218 217 218 234 241 222 224 220 222 227 233 230 246 238 244 226 187 215 197 237 235 255 263 266 259 251 255 260 259 255 254 266 265 269 276 283 276 269 272 273
329 325 293 190 204 216 220 225 227 233 232 232 223 230 226 230 229 237 245 255 221 227 225 209 221 221 240 234 248 258 243 246 252 255 255 263 255 263 266 264 262 270 282 273 263